Tracking 28081 objects as of 26-Sep-2023
HD Live streaming from Space Station
objects crossing your sky now

STARLINK-30051

Track STARLINK-30051 now!
10-day predictions
STARLINK-30051 is classified as:


NORAD ID: 55704
Int'l Code: 2023-026K
Perigee: 361.2 km
Apogee: 363.6 km
Inclination: 43.0 °
Period: 91.6 minutes
Semi major axis: 6733 km
RCS: Unknown
Launch date: February 27, 2023
Source: United States (US)
Launch site: AIR FORCE EASTERN TEST RANGE (AFETR)
Your satellite tracking list
Your tracking list is empty




NASA's NSSDC Master Catalog

Two Line Element Set (TLE):
1 55704U 23026K   23268.99811160 -.00025661  00000-0 -19359-3 0  9992
2 55704  42.9992 131.1835 0001794 259.2697 100.7969 15.71262433 33676
Source of the keplerian elements: AFSPC